Simultaneous Nadir Overpasses (SNOs) Predictions

Prediction of SNOs between AURA and NPP Satellite Orbit:

Table of predicted SNOs for the next 14.0 days since TLE Epoch: 11/7/2020
Index Date (AURA) Time (AURA) Lat,Lon (AURA) SZA (AURA ) Date (NPP) Time (NPP) Lat,Lon (NPP) SZA (NPP ) Distance(km) Time Diff (sec)
1 11/08/2020 19:08:33 -79.43, -30.88 71.65 11/08/2020 19:07:38 -79.43, -30.88 71.60 0.24 55
2 11/08/2020 19:57:54 79.62, 138.06 108.12 11/08/2020 19:58:17 79.61, 137.95 108.12 2.40 23
3 11/11/2020 11:24:58 -79.58, 85.99 71.09 11/11/2020 11:24:27 -79.58, 86.13 71.09 2.79 31
4 11/11/2020 12:14:19 79.76,-105.04 108.67 11/11/2020 12:15:06 79.76,-105.00 108.63 0.68 47
5 11/14/2020 03:41:25 -79.60,-157.96 70.41 11/14/2020 03:41:19 -79.60,-157.96 70.41 0.19 6
6 11/14/2020 04:30:46 79.78, 11.00 109.36 11/14/2020 04:31:58 79.77, 10.90 109.32 1.88 72
7 11/16/2020 19:08:32 79.38, 148.75 110.57 11/16/2020 19:07:34 79.37, 148.63 110.64 2.71 58
8 11/16/2020 19:57:52 -79.65, -41.70 69.80 11/16/2020 19:58:11 -79.64, -41.78 69.80 1.65 19
9 11/19/2020 11:24:56 79.54, -94.28 111.00 11/19/2020 11:24:22 79.55, -94.16 111.00 2.64 34
